Temp
19 19 19 18 15 13 15 18 21 23 24 28 28 26 25 27 25 21 24 25 26 25 24 24 24 24 24 23 22 21 20 19 19 19 18 18 18 18 18 18 17 17 17 17 16 16 16 16 16
18 18 18 18 14 13 15 19 21 24 27 27 28 28 27 26 25 24 24 25 25 25 24 24 24 24 23 23 22 21 20 19 19 18 18 18 18 18 18 18 17 17 17 16 16 16 16 16 16
18 18 17 14 13 15 15 20 22 25 28 28 27 28 28 27 26 24 25 25 25 24 24 24 23 23 23 23 22 21 20 19 19 18 18 18 18 17 17 17 17 17 16 16 16 16 16 16 16
18 17 17 14 14 16 19 21 23 24 27 28 27 27 27 27 25 25 24 25 25 24 24 23 23 23 23 22 22 21 20 19 19 18 18 18 17 17 17 17 17 16 16 16 16 16 16 16 16
16 17 13 14 15 18 20 22 23 24 26 27 27 25 26 25 26 24 23 23 23 24 23 23 23 23 22 22 22 21 20 20 19 18 18 17 17 17 16 16 16 16 16 16 16 16 16 16 16
16 18 13 15 16 19 20 24 24 25 26 27 26 26 25 24 24 23 23 22 23 24 23 23 23 23 22 22 22 21 20 20 19 18 18 17 17 16 16 16 16 16 16 16 15 16 16 15 15
14 13 14 14 17 19 21 24 23 25 25 26 27 23 26 25 24 23 23 22 22 23 22 22 22 22 22 22 22 21 21 20 19 19 18 17 16 16 16 16 15 15 16 15 15 15 15 15 14
17 14 15 16 17 18 21 23 24 25 25 27 27 23 24 23 24 23 23 22 22 22 21 21 22 22 22 22 22 21 20 20 19 18 18 17 16 16 15 15 15 15 15 15 14 14 13 14 13
17 15 15 16 17 19 22 22 24 25 26 26 26 26 24 24 23 23 22 22 21 21 21 21 21 22 22 22 21 21 21 20 19 18 18 17 16 15 15 15 15 14 14 14 13 14 14 13 13
15 14 16 17 18 19 21 21 21 22 23 25 25 25 23 23 23 23 22 21 21 21 21 21 21 21 21 21 21 21 21 20 19 19 17 17 16 15 15 14 14 14 14 14 13 14 14 13 12
16 15 16 18 19 20 20 20 22 20 20 24 23 24 25 23 22 22 22 21 20 20 20 20 20 19 20 21 21 21 21 20 19 19 18 17 16 15 15 14 14 13 14 14 13 13 14 13 13
15 17 17 18 19 19 19 21 20 20 20 21 22 22 23 23 23 23 22 22 22 20 20 20 20 19 19 19 20 21 21 20 20 19 18 17 16 15 15 14 14 14 14 13 13 12 13 13 15
16 17 18 19 20 20 21 20 20 20 20 20 21 21 21 22 23 23 23 23 22 21 20 20 21 20 20 18 19 19 20 20 20 19 18 17 16 15 15 14 14 14 13 13 13 12 13 13 14
17 18 18 19 19 20 19 19 20 20 20 20 20 20 20 21 21 22 23 22 22 22 22 20 20 20 20 19 19 19 20 19 19 18 19 18 16 16 15 15 14 14 13 13 13 12 13 13 13
17 15 16 17 18 17 19 17 17 20 20 20 20 20 20 21 21 21 22 23 22 22 22 21 20 20 19 19 19 18 18 18 18 19 18 17 16 15 15 15 14 13 13 12 12 12 11 12 11
14 14 13 16 17 18 17 16 18 20 20 19 19 20 20 20 21 21 22 22 22 22 22 22 21 20 20 19 18 18 17 17 17 18 17 17 16 16 15 14 14 14 13 13 12 12 11 11 11
12 11 12 14 16 16 16 16 18 19 19 19 19 19 19 20 20 21 22 22 22 22 22 22 21 20 20 19 18 18 17 16 16 16 16 16 16 15 15 14 13 12 12 13 12 11 11 11 11
11 11 12 13 15 16 16 16 18 19 18 19 20 19 19 21 21 21 22 22 22 22 22 22 22 21 20 20 18 18 16 16 15 14 15 15 15 15 15 14 13 13 12 12 11 11 11 11 11
12 12 12 14 16 15 16 14 16 17 18 18 19 19 20 20 22 22 22 22 22 22 22 22 22 21 19 18 18 17 17 15 14 13 14 15 13 14 14 12 13 12 12 12 12 11 11 11 11
12 12 12 14 15 16 14 14 14 15 15 18 18 19 20 20 21 21 21 22 22 22 22 22 22 21 20 20 19 18 17 15 14 13 13 13 13 13 13 13 12 12 11 11 11 11 11 10 11
13 12 13 13 15 14 13 14 14 16 17 18 19 20 19 19 20 21 21 22 22 22 22 22 22 21 20 19 18 16 16 14 13 13 13 13 12 13 13 13 12 11 11 11 11 11 11 11 10
12 14 14 14 14 11 14 12 14 16 17 18 19 20 19 20 21 20 20 20 20 21 22 22 22 21 19 19 18 18 18 16 14 13 13 13 13 13 12 11 11 11 11 11 11 11 11 11 11
12 14 13 14 14 12 12 11 13 15 16 18 19 19 19 19 18 17 17 19 20 20 21 21 22 20 19 18 19 18 18 16 13 12 12 12 12 12 12 12 11 10 11 10 11 11 10 10 10
13 13 12 10 11 10 12 12 12 15 16 18 17 16 15 15 16 17 17 18 19 19 20 21 21 20 19 18 19 19 18 16 12 12 12 12 12 11 11 11 10 10 10 10 11 11 11 11 10
11 11 8 7 9 9 13 12 13 16 17 15 14 13 12 13 14 14 15 15 17 18 20 20 20 19 18 19 18 18 16 16 13 13 13 12 12 12 11 11 10 10 11 10 11 10 11 10 10
10 11 7 8 9 10 13 12 14 17 17 10 13 12 11 11 10 11 11 12 15 18 20 20 20 19 19 19 18 16 16 15 15 14 13 13 13 13 12 11 10 10 10 10 10 10 10 10 10
8 8 9 7 10 9 11 13 14 12 12 10 11 10 9 7 6 8 10 10 12 13 15 17 18 17 18 17 17 16 15 15 14 14 13 12 12 12 11 10 10 10 10 10 10 10 10 10 10
10 10 8 7 8 9 11 11 8 7 7 9 10 8 7 6 6 6 7 8 10 11 12 15 16 16 16 16 16 15 15 13 13 13 12 12 12 11 11 10 11 10 10 10 10 10 10 10 10
7 7 8 9 10 9 10 9 5 6 9 9 9 7 5 4 3 2 5 6 8 9 10 11 12 15 15 15 15 14 14 13 13 12 11 11 11 11 10 10 10 10 10 10 10 10 10 10 10
9 8 9 7 10 11 9 8 7 7 8 9 9 7 4 3 2 1 2 4 6 8 9 9 10 11 12 14 14 14 13 12 11 11 10 11 11 10 9 9 9 9 10 10 10 10 10 10 10
Height
1503 1505 1507 1508 1520 1515 1516 1503 1482 1473 1471 1463 1458 1457 1464 1464 1469 1489 1477 1479 1480 1482 1486 1490 1492 1495 1498 1500 1501 1503 1505 1507 1509 1512 1515 1518 1520 1523 1526 1527 1529 1531 1533 1535 1537 1539 1541 1543 1544
1502 1504 1506 1506 1521 1528 1515 1490 1480 1470 1468 1463 1458 1458 1458 1466 1468 1473 1476 1480 1481 1482 1485 1489 1492 1495 1497 1499 1500 1502 1504 1506 1508 1511 1514 1516 1519 1522 1525 1527 1529 1531 1533 1535 1537 1539 1542 1544 1545
1500 1502 1506 1506 1514 1514 1511 1484 1472 1473 1471 1464 1461 1460 1460 1463 1467 1472 1475 1478 1480 1482 1485 1488 1491 1494 1496 1498 1499 1501 1502 1505 1507 1510 1512 1515 1518 1521 1524 1526 1529 1531 1533 1535 1538 1540 1542 1544 1546
1498 1503 1502 1504 1505 1492 1485 1473 1465 1471 1470 1464 1462 1463 1463 1463 1466 1471 1476 1478 1479 1482 1484 1488 1491 1493 1496 1497 1499 1500 1501 1504 1506 1508 1511 1514 1516 1519 1523 1525 1528 1531 1533 1535 1537 1540 1543 1545 1547
1498 1498 1503 1501 1494 1481 1477 1474 1468 1469 1467 1464 1462 1465 1466 1465 1464 1469 1474 1478 1480 1481 1484 1487 1488 1492 1495 1496 1498 1499 1501 1502 1505 1507 1510 1513 1515 1518 1522 1524 1528 1530 1533 1535 1538 1540 1543 1545 1547
1498 1494 1502 1496 1485 1478 1473 1467 1464 1462 1461 1461 1461 1462 1466 1468 1466 1468 1470 1473 1478 1481 1484 1486 1487 1489 1493 1495 1497 1498 1499 1501 1504 1506 1508 1511 1514 1517 1521 1523 1527 1529 1532 1535 1538 1539 1542 1546 1548
1493 1495 1493 1491 1487 1477 1468 1465 1464 1460 1457 1456 1455 1460 1463 1465 1467 1469 1471 1472 1474 1478 1482 1485 1486 1487 1490 1493 1495 1496 1498 1499 1502 1504 1507 1510 1513 1516 1519 1523 1526 1529 1532 1535 1537 1540 1542 1545 1548
1489 1490 1488 1484 1485 1474 1468 1461 1461 1461 1459 1456 1454 1457 1460 1462 1463 1467 1470 1471 1473 1476 1479 1482 1485 1486 1487 1490 1492 1494 1496 1498 1500 1502 1505 1508 1511 1515 1518 1522 1525 1527 1530 1532 1535 1538 1543 1548 1550
1488 1489 1478 1480 1480 1469 1468 1463 1455 1458 1455 1453 1454 1454 1456 1459 1463 1465 1468 1469 1471 1474 1476 1479 1482 1484 1485 1487 1489 1492 1493 1495 1497 1500 1503 1506 1509 1512 1516 1519 1523 1526 1529 1532 1533 1537 1540 1547 1548
1482 1480 1471 1472 1470 1468 1465 1462 1459 1459 1456 1450 1451 1455 1454 1456 1461 1463 1465 1467 1467 1470 1473 1475 1478 1480 1482 1483 1486 1489 1490 1492 1495 1497 1500 1503 1506 1510 1514 1517 1521 1524 1525 1527 1531 1533 1537 1543 1546
1472 1470 1472 1469 1468 1464 1461 1457 1457 1454 1456 1453 1452 1452 1454 1455 1456 1458 1460 1463 1464 1468 1469 1471 1473 1477 1478 1480 1482 1484 1487 1489 1491 1494 1497 1500 1504 1507 1511 1514 1517 1520 1523 1525 1527 1529 1532 1537 1541
1472 1465 1465 1462 1463 1461 1456 1454 1449 1451 1452 1453 1452 1451 1451 1453 1452 1452 1455 1458 1461 1463 1464 1467 1469 1472 1474 1476 1478 1480 1482 1485 1488 1490 1494 1497 1500 1503 1507 1511 1514 1516 1519 1521 1524 1527 1531 1534 1535
1463 1458 1457 1455 1455 1453 1452 1448 1447 1440 1447 1447 1447 1448 1447 1448 1449 1449 1451 1453 1455 1457 1458 1460 1463 1465 1469 1472 1473 1476 1478 1482 1484 1487 1490 1493 1497 1500 1504 1507 1510 1512 1516 1518 1521 1525 1528 1531 1532
1456 1454 1451 1448 1448 1448 1448 1443 1444 1441 1444 1442 1441 1439 1441 1442 1444 1446 1446 1448 1450 1453 1452 1456 1458 1460 1463 1465 1469 1471 1474 1477 1480 1483 1485 1489 1492 1496 1499 1502 1506 1509 1512 1515 1519 1521 1525 1527 1529
1455 1455 1448 1443 1443 1442 1442 1440 1437 1438 1441 1437 1436 1433 1433 1435 1436 1436 1439 1440 1444 1446 1448 1449 1453 1454 1457 1460 1463 1467 1469 1472 1475 1479 1481 1485 1488 1491 1494 1497 1501 1504 1507 1511 1515 1519 1522 1524 1525
1456 1454 1455 1433 1438 1435 1444 1438 1431 1434 1434 1429 1429 1430 1430 1428 1428 1429 1431 1433 1436 1440 1441 1444 1447 1449 1451 1455 1458 1462 1465 1468 1471 1474 1477 1481 1484 1487 1490 1492 1495 1499 1502 1506 1509 1513 1517 1519 1521
1455 1458 1450 1438 1436 1436 1437 1431 1424 1427 1425 1421 1421 1421 1420 1421 1419 1420 1422 1425 1428 1430 1434 1435 1439 1441 1444 1449 1453 1457 1461 1465 1467 1470 1473 1477 1480 1482 1485 1488 1491 1495 1498 1501 1504 1508 1511 1515 1517
1455 1458 1449 1444 1428 1432 1429 1422 1419 1418 1419 1413 1412 1413 1413 1411 1406 1412 1413 1416 1419 1422 1425 1426 1430 1435 1439 1442 1447 1452 1456 1459 1464 1467 1469 1473 1476 1478 1480 1484 1486 1490 1494 1497 1500 1503 1507 1510 1511
1450 1448 1443 1431 1426 1427 1422 1421 1414 1410 1410 1407 1407 1405 1404 1402 1402 1404 1406 1408 1411 1413 1416 1417 1421 1428 1431 1433 1439 1444 1447 1451 1456 1461 1465 1468 1471 1473 1476 1479 1482 1485 1488 1492 1495 1499 1503 1503 1505
1442 1443 1438 1430 1422 1422 1418 1415 1411 1409 1406 1403 1400 1397 1397 1398 1397 1397 1398 1400 1403 1406 1408 1408 1411 1418 1423 1427 1432 1436 1441 1445 1452 1455 1459 1462 1466 1469 1472 1473 1476 1480 1484 1486 1489 1493 1497 1500 1501
1432 1434 1432 1429 1419 1415 1417 1414 1409 1400 1398 1394 1391 1390 1390 1394 1394 1395 1396 1395 1397 1400 1402 1402 1405 1411 1416 1422 1427 1432 1437 1442 1448 1450 1453 1456 1460 1464 1466 1468 1471 1475 1478 1480 1483 1487 1491 1492 1498
1430 1422 1421 1419 1420 1427 1415 1423 1410 1401 1393 1387 1382 1377 1380 1385 1388 1391 1391 1389 1390 1391 1396 1395 1399 1404 1410 1416 1421 1425 1428 1432 1437 1443 1447 1451 1454 1457 1460 1462 1465 1469 1472 1475 1477 1478 1485 1488 1493
1422 1420 1419 1414 1413 1417 1417 1427 1398 1397 1390 1380 1370 1362 1371 1381 1384 1383 1381 1383 1386 1388 1390 1391 1392 1398 1404 1411 1416 1419 1423 1427 1432 1437 1441 1447 1449 1451 1453 1456 1459 1462 1465 1469 1472 1476 1478 1482 1488
1418 1417 1416 1428 1415 1422 1410 1419 1400 1389 1382 1377 1366 1369 1370 1374 1375 1377 1379 1379 1380 1381 1385 1387 1386 1390 1397 1405 1410 1413 1417 1422 1426 1432 1436 1439 1442 1444 1447 1449 1452 1456 1459 1462 1466 1469 1472 1477 1482
1417 1418 1438 1434 1428 1419 1401 1409 1389 1373 1370 1374 1377 1369 1371 1372 1375 1378 1379 1380 1380 1378 1377 1381 1384 1386 1394 1400 1404 1409 1412 1416 1422 1428 1431 1433 1435 1437 1439 1442 1445 1448 1451 1454 1458 1461 1467 1472 1475
1411 1410 1431 1423 1418 1405 1395 1393 1378 1368 1367 1377 1383 1374 1374 1378 1382 1383 1384 1382 1379 1375 1375 1379 1381 1386 1391 1396 1400 1405 1409 1413 1419 1423 1426 1429 1430 1432 1435 1437 1440 1443 1445 1449 1451 1454 1460 1464 1468
1411 1412 1411 1429 1403 1412 1394 1381 1372 1380 1374 1386 1387 1383 1386 1388 1390 1385 1386 1384 1378 1378 1378 1380 1383 1386 1391 1394 1399 1403 1406 1412 1415 1419 1421 1423 1425 1427 1429 1432 1434 1436 1438 1440 1443 1447 1451 1456 1461
1396 1402 1417 1423 1412 1405 1388 1391 1402 1403 1399 1400 1391 1390 1391 1393 1391 1390 1388 1387 1383 1381 1381 1382 1383 1386 1390 1394 1399 1402 1406 1410 1413 1415 1418 1420 1423 1423 1425 1426 1427 1429 1431 1432 1436 1439 1440 1449 1455
1405 1404 1412 1410 1399 1401 1397 1398 1419 1407 1403 1397 1401 1399 1400 1399 1397 1396 1393 1392 1389 1388 1386 1384 1385 1387 1388 1393 1394 1399 1402 1405 1410 1414 1416 1417 1418 1418 1419 1421 1422 1423 1425 1425 1427 1431 1439 1444 1448
1398 1404 1402 1409 1398 1391 1401 1415 1416 1411 1409 1406 1407 1409 1410 1406 1404 1403 1400 1394 1391 1388 1387 1389 1387 1390 1388 1390 1392 1397 1401 1403 1407 1411 1413 1413 1414 1415 1414 1416 1417 1417 1417 1420 1424 1426 1433 1439 1445
Wind_Speed
8 7 4 3 2 2 5 8 13 19 13 8 5 9 5 1 4 4 24 21 17 17 20 20 19 15 11 8 8 9 10 11 12 12 12 10 9 8 9 10 11 12 12 12 14 13 13 12 11
8 9 4 3 3 3 5 12 21 18 12 8 10 7 9 5 17 21 21 16 12 18 21 22 18 13 10 8 7 8 10 11 13 13 13 12 10 9 10 10 10 11 11 12 13 13 13 13 12
11 14 3 4 4 8 6 11 19 15 14 2 2 4 2 3 14 25 19 19 18 20 23 20 16 13 11 9 7 7 9 11 12 14 14 13 12 11 11 11 11 11 11 11 13 13 14 13 12
11 7 7 3 10 8 20 17 21 16 11 2 2 2 3 7 14 19 21 19 20 22 22 18 16 13 12 9 6 7 8 10 12 13 14 14 13 12 12 12 12 12 11 11 13 15 14 13 12
12 5 4 5 12 8 14 23 31 18 14 7 6 3 4 16 14 24 20 17 20 23 23 20 18 15 13 10 7 6 8 10 11 13 13 14 14 14 13 13 14 13 13 12 13 12 14 13 12
5 5 2 13 15 10 13 32 28 20 22 9 6 4 5 18 17 21 22 17 16 19 22 21 20 17 15 12 9 8 8 9 11 12 13 14 14 14 14 15 16 15 14 13 15 13 14 13 14
6 2 7 8 9 14 14 28 9 14 20 13 11 9 10 11 17 18 23 22 21 18 18 21 21 20 17 15 12 10 10 9 11 12 13 14 15 14 15 15 17 16 14 15 16 14 13 13 15
17 4 13 11 11 21 18 29 23 19 10 7 9 4 3 16 25 19 19 22 25 24 23 22 23 21 20 17 14 12 11 11 12 13 13 14 15 15 15 16 17 17 16 17 15 14 10 11 14
24 10 17 14 15 18 24 21 37 30 22 13 6 7 5 17 18 23 20 23 25 26 27 25 24 25 22 20 17 14 13 13 13 14 14 15 17 18 17 17 17 19 17 16 18 17 18 14 15
4 9 14 9 12 13 21 20 23 18 22 10 11 5 12 14 16 18 22 24 27 27 28 29 26 26 25 23 20 17 15 15 15 16 17 17 17 17 18 18 19 20 22 24 23 21 18 14 18
11 16 11 19 26 27 17 25 27 16 9 16 9 15 16 15 19 18 16 21 25 27 30 31 29 27 28 27 23 21 18 17 17 17 17 18 18 19 20 21 21 24 24 26 24 24 23 21 12
15 22 26 27 34 35 23 28 20 21 18 28 27 19 19 20 23 21 22 23 22 32 34 31 31 30 29 27 26 23 21 18 18 18 19 20 21 20 21 21 24 27 28 28 27 25 26 21 18
17 17 26 28 31 32 32 23 22 28 25 33 35 29 25 24 21 23 20 26 25 26 35 35 27 28 30 30 27 24 22 20 16 18 20 21 22 23 23 24 24 29 30 29 29 29 28 21 21
14 20 22 29 28 26 16 15 20 26 27 36 40 36 33 32 30 26 29 23 29 30 29 34 36 32 30 33 32 28 25 21 18 17 18 20 22 23 23 25 25 28 30 31 30 31 31 23 16
23 14 17 19 14 11 20 18 15 22 25 34 40 41 38 40 39 37 31 35 28 34 33 29 36 38 35 33 32 31 28 24 23 20 19 21 23 26 25 25 25 26 28 30 31 29 28 22 18
15 8 9 12 15 21 12 22 19 24 30 35 36 37 37 44 44 43 40 35 39 36 37 38 33 42 41 36 32 32 33 30 27 24 22 23 26 27 26 27 26 26 26 28 30 31 30 25 21
7 15 16 20 10 15 10 20 15 24 34 32 34 36 38 41 49 45 39 40 38 40 41 41 37 41 46 38 33 31 36 35 32 30 28 26 27 28 28 28 27 26 28 27 28 31 29 25 22
4 10 14 18 22 15 18 22 18 22 23 21 27 28 34 26 32 39 44 41 42 41 41 46 41 39 45 40 34 32 33 32 40 37 33 30 30 29 28 28 28 28 27 27 26 27 26 24 21
17 19 21 19 13 13 18 11 16 13 22 23 26 24 28 31 25 23 22 26 48 42 43 46 41 40 47 44 37 35 34 32 30 34 38 36 30 30 29 28 29 31 30 27 28 26 25 22 30
22 25 25 22 21 17 14 12 9 9 9 22 21 24 28 30 33 29 31 29 28 32 35 44 44 41 45 43 38 36 34 32 34 31 29 32 35 33 30 30 30 31 31 28 33 27 27 24 34
22 20 19 19 16 8 8 15 9 16 19 35 31 34 40 35 32 31 35 37 29 27 28 31 30 41 48 43 39 34 29 27 33 35 34 31 30 30 31 30 30 32 30 29 30 30 31 33 37
21 17 21 20 19 8 3 15 14 11 21 24 31 44 34 29 26 21 13 6 7 18 36 35 29 35 42 39 35 31 31 34 38 40 39 37 32 32 32 30 30 32 30 32 27 41 31 31 39
23 19 19 21 17 3 9 6 16 11 19 22 20 19 31 26 6 14 10 8 14 13 14 34 35 35 36 34 30 29 27 28 32 36 35 33 32 32 32 31 31 32 34 33 32 33 28 32 39
23 18 7 15 3 9 14 9 13 15 14 13 6 19 24 21 17 14 13 8 11 16 19 24 39 37 35 31 29 26 28 28 33 30 27 29 28 28 28 29 28 32 35 38 39 40 36 37 40
16 16 4 4 3 11 9 11 19 13 20 1 3 23 27 25 23 19 17 20 14 16 20 25 37 35 31 27 29 28 28 28 30 28 28 27 24 24 25 29 30 31 36 36 32 39 41 41 42
18 10 5 5 5 8 12 9 10 11 5 22 16 29 31 30 25 21 22 25 18 11 9 21 36 36 31 29 29 27 25 24 25 26 24 23 19 18 21 25 31 30 34 38 37 40 39 36 40
6 6 18 11 7 3 4 7 7 21 15 16 21 28 27 29 30 28 24 27 17 15 13 23 27 25 24 25 25 21 27 24 26 25 24 19 17 22 23 25 25 32 35 38 40 39 46 40 42
1 3 2 6 2 4 1 3 4 12 17 6 17 21 27 32 34 30 27 28 20 14 8 11 16 16 17 22 20 21 26 25 26 24 21 20 24 25 25 24 26 28 32 33 38 43 43 37 44
2 1 6 8 4 2 2 4 3 9 12 16 18 27 27 31 35 34 28 25 24 16 15 8 4 13 16 23 24 26 28 28 24 21 19 21 22 21 21 22 27 28 31 35 33 39 33 35 48
13 10 12 3 2 4 5 2 7 8 6 17 24 26 25 31 32 33 30 27 24 22 16 13 6 0 13 22 23 26 26 22 18 16 18 18 17 16 17 19 20 23 28 30 40 41 34 35 42
Wind_Direction
220 204 189 290 33 103 230 242 244 273 286 269 88 80 148 195 100 168 150 171 159 151 153 153 146 143 150 166 179 177 171 167 165 166 171 172 175 175 169 168 167 166 162 164 164 163 160 164 159
208 174 168 262 137 252 271 241 254 264 283 41 42 44 46 107 120 138 141 157 158 160 156 150 145 141 145 164 178 181 177 174 173 172 176 181 184 184 181 179 173 172 164 165 170 166 164 161 154
197 167 241 165 190 224 236 258 268 286 306 76 115 55 49 41 141 149 163 167 164 163 156 151 149 144 148 148 170 186 184 181 182 179 181 184 188 193 191 186 182 177 172 170 175 168 165 161 150
183 187 252 195 232 239 227 253 271 300 287 154 17 22 141 103 138 163 171 163 159 160 158 157 156 154 157 150 161 188 189 186 187 186 186 187 192 195 197 191 191 180 176 177 175 167 168 161 152
180 248 225 221 244 257 268 265 273 276 277 220 172 272 28 112 146 154 168 163 160 165 167 169 165 169 172 171 178 185 190 191 193 191 191 191 193 196 198 200 194 187 188 187 171 171 171 166 159
208 242 240 229 243 258 251 255 263 273 272 215 141 116 97 135 145 152 159 166 167 174 177 179 176 178 185 184 192 187 191 198 200 194 190 193 196 196 198 203 197 196 194 189 181 175 179 174 165
216 274 244 267 272 274 263 272 269 275 312 217 180 157 194 178 167 153 164 172 174 193 193 194 191 185 190 190 199 194 195 198 205 196 192 191 196 195 201 205 202 202 202 196 191 186 184 177 170
229 255 261 255 252 264 267 282 287 300 290 321 234 159 248 149 158 151 174 187 187 195 212 209 206 198 195 196 197 203 200 199 202 198 192 191 194 197 203 205 204 202 203 203 192 182 190 178 174
242 238 249 251 256 275 287 288 291 302 270 259 285 316 169 181 168 167 163 187 197 200 220 220 214 208 202 202 201 207 206 206 202 200 195 191 197 195 201 208 205 205 206 201 197 191 184 178 178
206 242 245 236 266 282 281 283 305 323 312 277 274 267 161 184 182 186 192 189 200 208 226 232 223 215 208 206 206 211 211 211 207 204 201 200 200 196 203 206 207 205 206 205 203 180 178 190 179
236 251 271 274 277 270 277 296 300 310 314 278 300 290 236 201 185 186 200 205 204 220 229 236 236 222 213 208 208 212 212 213 211 208 206 204 206 202 208 207 204 207 213 214 209 204 198 179 198
243 240 238 250 256 264 270 278 282 286 291 297 312 301 295 295 204 197 206 209 221 221 234 242 245 235 220 213 211 210 212 214 216 211 210 208 211 213 218 216 213 214 216 220 215 192 189 190 211
253 251 256 259 253 255 262 260 271 275 290 305 295 299 294 289 277 251 238 223 219 229 232 237 238 237 230 216 217 214 213 212 211 211 211 212 216 219 222 225 219 221 221 224 222 206 200 211 225
261 264 262 261 263 265 265 265 272 275 288 291 292 287 286 286 282 273 245 240 224 232 237 235 239 237 230 223 222 219 218 215 212 209 207 211 214 220 221 224 222 223 225 228 228 217 213 214 230
272 285 289 273 269 266 272 276 252 262 272 273 273 280 283 277 268 271 261 245 243 236 239 238 227 240 231 223 222 221 218 216 219 220 210 210 215 221 223 229 228 230 228 227 228 222 223 232 228
290 279 270 267 250 262 250 263 262 260 255 254 258 262 268 267 264 255 257 247 243 243 243 248 235 234 230 223 220 221 214 215 218 220 217 211 216 222 224 229 229 230 226 226 229 226 222 234 238
240 255 254 278 250 262 241 262 264 255 250 246 248 254 253 262 255 248 249 241 240 239 243 243 236 231 225 224 221 224 218 211 215 219 218 216 216 221 224 228 229 226 226 232 226 223 225 227 237
256 234 255 252 259 251 254 255 263 261 269 244 256 259 256 257 245 241 241 241 239 240 241 240 239 233 221 220 221 221 222 223 210 217 222 218 219 219 222 228 230 229 226 231 232 225 223 232 233
261 268 276 269 278 246 246 259 268 249 266 267 261 263 277 286 266 269 269 254 237 239 239 238 235 227 213 213 214 216 223 226 215 215 216 222 219 221 222 224 222 225 226 233 224 225 222 231 235
246 249 258 271 275 275 283 280 268 271 262 272 262 270 272 275 274 273 273 269 255 243 234 232 230 219 213 216 217 223 225 226 219 220 218 220 218 218 220 220 223 224 227 228 225 231 215 222 202
249 257 266 267 267 247 299 292 291 276 276 274 275 263 264 265 261 258 257 257 245 245 226 234 229 222 211 210 213 215 221 224 222 222 223 219 224 222 220 225 225 224 229 224 230 224 220 205 205
276 258 260 267 269 251 211 276 267 267 255 266 266 265 239 240 238 261 238 241 254 250 230 228 233 216 206 208 214 225 233 228 228 226 225 225 225 225 230 236 231 228 230 229 229 222 221 216 202
277 279 299 267 262 252 248 271 276 258 274 279 291 232 227 233 126 50 11 317 285 265 255 234 223 204 202 204 222 232 241 237 234 227 231 227 230 231 232 229 227 230 225 225 221 208 221 215 202
283 287 217 279 293 247 241 234 267 249 250 295 145 86 77 63 56 42 27 345 287 268 264 244 211 203 199 202 226 239 241 233 222 219 224 227 227 233 232 232 227 225 226 223 223 229 227 213 215
282 265 258 240 210 247 211 232 242 263 250 99 60 72 58 50 32 22 11 356 327 293 242 224 207 204 193 213 227 233 232 232 225 231 238 232 226 231 237 227 222 225 227 231 227 212 218 213 205
262 214 201 207 214 256 215 250 245 248 216 104 44 71 54 38 27 21 13 1 358 349 277 210 207 204 205 221 225 220 227 224 233 233 233 229 236 249 242 236 229 228 227 226 234 218 220 220 216
194 184 199 268 309 232 232 273 35 358 50 18 88 64 53 38 27 23 22 18 43 49 112 177 179 198 208 216 219 222 209 222 218 226 230 231 246 258 255 245 234 229 231 233 232 223 223 215 213
235 105 131 233 275 248 181 281 81 33 19 341 55 57 47 35 26 20 22 18 30 35 42 157 181 185 199 217 211 213 209 207 217 224 227 236 251 246 251 239 234 232 238 227 235 217 207 214 206
41 176 213 217 216 280 304 79 66 33 18 59 63 55 46 37 25 17 16 15 25 41 43 42 279 227 212 211 203 204 211 216 216 217 231 239 250 245 239 242 234 234 240 242 220 210 216 217 218
249 211 213 120 257 233 110 11 303 347 54 52 54 51 48 38 21 15 15 14 16 23 27 24 43 322 171 190 202 210 210 210 216 223 235 243 243 240 241 229 232 231 232 228 231 212 225 208 214